Okean 3 Rocket - Orbit

View from above orbital plane
View from above orbital plane
View from above satellite
View from above satellite

Ground track
Ground track

The orbit data is extracted from the following two-line orbital elements,

1 21398U 91039B   13138.67901981  .00000433  00000-0  55450-4 0  4327
2 21398 082.5221 172.9651 0022132 030.3557 119.5473 14.78852243183544
Epoch (UTC): 18 May 2013 16:17:47
Eccentricity: 0.0022132
inclination: 82.5221°
perigee height: 617 km
apogee height: 648 km
right ascension of ascending node: 172.9651°
argument of perigee: 30.3557°
revolutions per day: 14.78852243
mean anomaly at epoch: 119.5473°
orbit number at epoch: 18354

The dashed part of the orbit path shows where the satellite is in the earth's shadow,  

Developed and maintained by Chris Peat, Heavens-Above GmbH. Please read the updated FAQ before sending e-mail. Imprint. DLR